Weather History for Palmer, AK

Change the Weather History Date:

Wednesday, May 1, 2013

  Actual Average Record
Temperature  
Mean Temperature 38 °F -  
Max Temperature 50 °F 55 °F 74 °F (1976)
Min Temperature 28 °F 34 °F 23 °F (1952)
Degree Days  
Heating Degree Days 27    
Moisture  
Dew Point 20 °F    
Average Humidity 49    
Maximum Humidity 82    
Minimum Humidity 24    
Precipitation  
Precipitation 0.00 in - - ()
Sea Level Pressure  
Sea Level Pressure 29.63 in    
Wind  
Wind Speed 7 mph (North)    
Max Wind Speed 13 mph    
Max Gust Speed -    
Visibility 10 miles    
Events      
Averages and records for this station are not official NWS values.
T = Trace of Precipitation, MM = Missing Value Source: NWS Daily Summary

Daily Weather History Graph

Daily Weather History Graph

Search for Another Location

Airport:

Trip Planner

Search our weather history database for the weather conditions in past years. The results will help you decide how hot, cold, wet, or windy it might be!

Date:

Astronomy

May. 01, 2013 Rise Set
Actual Time 5:43 AM AKDT 10:04 PM AKDT
Civil Twilight 4:45 AM AKDT 11:03 PM AKDT
Nautical Twilight 3:02 AM AKDT 12:52 AM AKDT
Astronomical Twilight Sun does not rise Sun does not rise
Moon 3:20 AM AKDT (5/1) 11:38 AM AKDT (5/1)
Length of Visible Light 18h 18m
Length of Day
16h 20m
Waning Gibbous, 57% of the Moon is Illuminated
May 1
Waning Gibbous
May 2
Last Quarter
May 9
New
May 17
First Quarter
May 24
Full

Hourly Weather History & Observations

Time (AKDT) Temp. Windchill Dew Point Humidity Pressure Visibility Wind Dir Wind Speed Gust Speed Precip Events Conditions
12:53 AM 30.9 °F 24.3 °F 25.0 °F 79% 29.81 in 10.0 mi North 6.9 mph - N/A   Clear
1:53 AM 28.9 °F 21.9 °F 24.1 °F 82% 29.80 in 10.0 mi NNW 6.9 mph - N/A   Clear
2:53 AM 28.9 °F 21.1 °F 23.0 °F 78% 29.78 in 10.0 mi North 8.1 mph - N/A   Partly Cloudy
3:53 AM 28.9 °F 21.1 °F 21.0 °F 72% 29.76 in 10.0 mi North 8.1 mph - N/A   Overcast
4:53 AM 28.9 °F 20.4 °F 18.0 °F 64% 29.73 in 10.0 mi North 9.2 mph - N/A   Clear
5:53 AM 28.9 °F 19.2 °F 18.0 °F 64% 29.71 in 10.0 mi North 11.5 mph - N/A   Clear
6:53 AM 28.9 °F 19.2 °F 17.1 °F 61% 29.69 in 10.0 mi NNW 11.5 mph - N/A   Clear
7:53 AM 33.1 °F 25.5 °F 17.1 °F 52% 29.67 in 10.0 mi North 9.2 mph - N/A   Clear
8:53 AM 37.0 °F 31.6 °F 17.1 °F 44% 29.65 in 10.0 mi North 6.9 mph - N/A   Clear
9:53 AM 39.9 °F 33.9 °F 16.0 °F 38% 29.64 in 10.0 mi North 9.2 mph - N/A   Clear
10:53 AM 42.1 °F - 16.0 °F 35% 29.61 in 10.0 mi Calm Calm - N/A   Clear
11:53 AM 44.1 °F 42.5 °F 19.9 °F 38% 29.59 in 10.0 mi Variable 3.5 mph - N/A   Partly Cloudy
12:53 PM 46.0 °F 43.1 °F 16.0 °F 30% 29.56 in 10.0 mi North 5.8 mph - N/A   Partly Cloudy
1:53 PM 46.0 °F 41.0 °F 15.1 °F 29% 29.55 in 10.0 mi NNE 10.4 mph - N/A   Scattered Clouds
2:53 PM 48.0 °F - 12.9 °F 24% 29.54 in 10.0 mi NNE 12.7 mph - N/A   Mostly Cloudy
3:53 PM 48.0 °F - 17.1 °F 29% 29.52 in 10.0 mi NE 11.5 mph - N/A   Overcast
4:53 PM 46.9 °F - 18.0 °F 32% 29.52 in 10.0 mi NNE 11.5 mph - N/A   Overcast
5:53 PM 46.9 °F - 21.9 °F 37% 29.52 in 10.0 mi WNW 6.9 mph - N/A   Overcast
6:53 PM 45.0 °F 41.2 °F 21.9 °F 40% 29.53 in 10.0 mi SSW 6.9 mph - N/A   Overcast
7:53 PM 44.1 °F 40.8 °F 21.9 °F 42% 29.54 in 10.0 mi SW 5.8 mph - N/A   Overcast
8:53 PM 43.0 °F 41.3 °F 21.9 °F 43% 29.55 in 10.0 mi SSW 3.5 mph - N/A   Overcast
9:53 PM 42.1 °F 40.2 °F 24.1 °F 49% 29.57 in 10.0 mi ESE 3.5 mph - N/A   Overcast
10:53 PM 39.9 °F - 25.0 °F 55% 29.60 in 10.0 mi Calm Calm - N/A   Overcast
11:53 PM 39.0 °F - 26.1 °F 60% 29.62 in 10.0 mi Calm Calm - N/A   Overcast